[[{"header":{"parameterUnit":"m.s-1","parameterCategory":1,"la1":30.2991,"la2":30.254,"lo1":-89.0895,"lo2":-89.0444,"dy":0.0017,"dx":0.0017,"nx":28,"ny":28,"refTime":"2023-07-31T21:00:00:Z","depth":0,"parameterNumber":2,"parameterNumberName":"U-component_of_WINDS"},"data":[0,0,0,0,0,0,0,0,0,0,0,0,0,0,0,0,0,0,0,0,0,0,0,0,0,0,0,0,0,0,0,0,0,0,0,0,0,0,0,0,0,0,0,0,0,0,0,0,0,0,0,0,0,0,0,0,0,0,-1.4146,-1.4145,0,-1.4078,-1.4077,-1.4076,-1.4025,-1.4025,-1.4024,-1.4024,-1.3952,-1.395,-1.3949,0,0,0,0,0,0,0,0,0,0,0,0,0,-1.4229,-1.4228,-1.4146,-1.4145,-1.4144,-1.4078,-1.4077,-1.4076,-1.4025,-1.4025,-1.4024,-1.4024,-1.3952,-1.3951,-1.3949,0,0,0,0,0,0,0,0,0,0,0,0,0,-1.418,-1.4227,-1.4146,-1.4111,-1.4107,-1.4078,-1.4077,-1.4076,-1.4025,-1.4025,-1.4024,-1.4023,-1.3953,-1.3951,-1.3949,-1.3949,0,0,-1.3942,-1.3941,0,0,0,0,0,0,0,0,-1.4183,-1.4177,-1.4117,-1.4113,-1.4109,-1.4059,-1.408,-1.4033,-1.4025,-1.4056,-1.4024,-1.4023,-1.3988,-1.3983,-1.3972,-1.3945,-1.3942,-1.3942,-1.394,-1.3939,-1.3939,0,0,0,0,0,0,0,-1.4187,-1.418,-1.4119,-1.4116,-1.4111,-1.4098,-1.409,-1.4071,-1.4027,-1.4053,-1.405,-1.4042,-1.3986,-1.3974,-1.3969,-1.3941,-1.3942,-1.394,-1.3938,-1.3937,-1.3912,-1.3913,0,0,0,0,0,0,-1.4196,-1.4183,-1.4121,-1.4117,-1.4145,-1.4097,-1.4088,-1.4076,-1.4027,-1.4019,-1.4043,-1.404,-1.3978,-1.3972,-1.3967,-1.3964,-1.3939,-1.3937,-1.3936,-1.3912,-1.3913,-1.3913,0,0,0,0,0,0,-1.4198,-1.4191,-1.4124,-1.4149,-1.4139,-1.4096,-1.4083,-1.4075,-1.4063,-1.4019,-1.4011,-1.4039,-1.3977,-1.397,-1.3954,-1.3961,-1.3936,-1.3934,-1.3911,-1.3912,-1.3913,-1.3958,0,0,0,0,0,0,-1.42,-1.4192,-1.4192,-1.4149,-1.4138,-1.4113,-1.4083,-1.4074,-1.406,-1.4055,-1.4013,-1.4006,-1.3976,-1.3958,-1.3952,-1.3957,-1.3932,-1.391,-1.3911,-1.3913,-1.3956,-1.3961,-1.3965,0,0,0,0,0,-1.4204,-1.4206,-1.4192,-1.4185,-1.4137,-1.4113,-1.4107,-1.4073,-1.406,-1.406,-1.4032,-1.4007,-1.3961,-1.3956,-1.3949,-1.3954,-1.3909,-1.3911,-1.3912,-1.3954,-1.396,-1.3965,0,0,0,0,0,0,-1.4249,-1.42,-1.4184,-1.4173,-1.4148,-1.4105,-1.4102,-1.4081,-1.4058,-1.4055,-1.4014,-1.4005,-1.3993,-1.3972,-1.3967,-1.3952,-1.3932,-1.3932,-1.3966,-1.3971,-1.3976,-1.3981,-1.3931,0,0,0,0,0,-1.4259,-1.4244,-1.4201,-1.4196,-1.4184,-1.4146,-1.4134,-1.4111,-1.4083,-1.4071,-1.4042,-1.4015,-1.3995,-1.3982,-1.3961,-1.3953,-1.3943,-1.3953,-1.3958,-1.3962,-1.3962,-1.3957,-1.3961,-1.3918,-1.3918,-1.3918,0,0,-1.4277,-1.4248,-1.4241,-1.4204,-1.4182,-1.4167,-1.4137,-1.4122,-1.4111,-1.4069,-1.4052,-1.403,-1.3997,-1.3986,-1.3979,-1.3968,-1.3972,-1.3963,-1.3967,-1.3965,-1.3959,-1.3963,-1.3966,-1.3919,-1.3919,-1.3919,0,0,-1.4302,-1.4279,-1.4272,-1.4251,-1.4218,-1.4193,-1.4192,-1.4152,-1.4136,-1.4119,-1.4088,-1.4073,-1.4039,-1.4017,-1.4001,-1.402,-1.3997,-1.4015,-1.4037,-1.4033,-1.4036,-1.4039,-1.4046,-1.4049,-1.4015,-1.4015,-1.4015,0,-1.4328,-1.4305,-1.4271,-1.4259,-1.4244,-1.4207,-1.42,-1.4181,-1.4142,-1.4132,-1.4121,-1.4078,-1.4053,-1.4036,-1.4041,-1.403,-1.4026,-1.4019,-1.4039,-1.4041,-1.4043,-1.4049,-1.4052,-1.4018,-1.4017,-1.4017,-1.4017,0,-1.4339,-1.4324,-1.4322,-1.4287,-1.4272,-1.4262,-1.4227,-1.4216,-1.4195,-1.417,-1.4154,-1.4123,-1.4096,-1.409,-1.4068,-1.407,-1.4064,-1.4046,-1.4025,-1.405,-1.4055,-1.4057,-1.4021,-1.402,-1.402,-1.4019,0,0,-1.4389,-1.4338,-1.4338,-1.4322,-1.4284,-1.4271,-1.426,-1.4234,-1.4225,-1.42,-1.419,-1.4162,-1.4146,-1.4128,-1.4104,-1.41,-1.4118,-1.4082,-1.4081,-1.409,-1.4118,-1.4131,-1.4135,-1.4102,-1.4103,-1.4103,-1.4121,0,-1.4408,-1.4387,-1.4357,-1.4345,-1.4331,-1.4296,-1.4287,-1.4262,-1.424,-1.4224,-1.4199,-1.418,-1.416,-1.4149,-1.4144,-1.4117,-1.4123,-1.4115,-1.4091,-1.4091,-1.41,-1.4137,-1.4151,-1.4169,-1.4122,-1.4123,-1.4123,0,-1.4427,-1.4406,-1.4393,-1.4357,-1.435,-1.4342,-1.4316,-1.4301,-1.4273,-1.4257,-1.4239,-1.4213,-1.4199,-1.4182,-1.4162,-1.4158,-1.4146,-1.4132,-1.4132,-1.4127,-1.4108,-1.4133,-1.4174,-1.4177,-1.4126,-1.4125,-1.4125,0,-1.4465,-1.4433,-1.4421,-1.4409,-1.4367,-1.4362,-1.4344,-1.4315,-1.4302,-1.428,-1.4271,-1.4247,-1.4233,-1.4215,-1.4184,-1.4174,-1.4168,-1.4147,-1.4154,-1.4155,-1.4153,-1.4153,-1.4192,-1.4147,-1.4147,-1.4147,-1.4147,0,-1.4488,-1.4482,-1.4438,-1.4431,-1.4422,-1.4388,-1.4381,-1.436,-1.4335,-1.4323,-1.4292,-1.4281,-1.4241,-1.4225,-1.4201,-1.4188,-1.4183,-1.4169,-1.4162,-1.4171,-1.4173,-1.4163,-1.416,-1.4148,-1.4148,-1.4148,-1.4147,0,-1.4529,-1.4499,-1.4484,-1.4446,-1.4437,-1.4432,-1.44,-1.4391,-1.4368,-1.4353,-1.4348,-1.4311,-1.4291,-1.4259,-1.4229,-1.4213,-1.4205,-1.4194,-1.4215,-1.421,-1.4219,-1.4218,-1.4251,-1.4254,-1.4209,-1.4209,-1.421,0,-1.4545,-1.4539,-1.4502,-1.4492,-1.4476,-1.446,-1.4447,-1.4414,-1.4401,-1.437,-1.4365,-1.4344,-1.4324,-1.4294,-1.4264,-1.4242,-1.423,-1.4243,-1.4226,-1.4236,-1.423,-1.423,-1.4229,-1.4247,-1.4247,-1.4248,-1.4248,0,-1.4578,-1.4564,-1.4546,-1.4524,-1.451,-1.449,-1.4469,-1.4463,-1.4425,-1.4413,-1.4393,-1.4378,-1.4349,-1.4327,-1.4301,-1.4282,-1.4259,-1.4254,-1.4255,-1.4263,-1.4275,-1.4269,-1.4225,-1.4253,-1.4253,-1.4252,-1.4252,-1.4252,-1.4606,-1.46,-1.4573,-1.4554,-1.4536,-1.4517,-1.4508,-1.4484,-1.4468,-1.4442,-1.4423,-1.4405,-1.4378,-1.434,-1.4323,-1.4308,-1.4297,-1.4298,-1.4297,-1.4298,-1.4301,-1.4279,-1.4303,-1.4303,-1.4302,-1.4302,-1.4302,0,-1.4636,-1.4618,-1.4602,-1.4574,-1.456,-1.4542,-1.4518,-1.4507,-1.4491,-1.4469,-1.4451,-1.4428,-1.4408,-1.4378,-1.4355,-1.4349,-1.4338,-1.4344,-1.4343,-1.434,-1.4312,-1.4314,-1.4353,-1.4353,-1.4353,-1.4353,-1.4353,-1.4353,-1.465,-1.4639,-1.4622,-1.4601,-1.4583,-1.4565,-1.4553,-1.4536,-1.4518,-1.4495,-1.4478,-1.4459,-1.4433,-1.4409,-1.4389,-1.4381,-1.4374,-1.4383,-1.4372,-1.4346,-1.4341,-1.4337,-1.4338,-1.4382,-1.4382,-1.44,-1.44,-1.44]},{"header":{"parameterUnit":"m.s-1","parameterCategory":1,"la1":30.2991,"la2":30.254,"lo1":-89.0895,"lo2":-89.0444,"dy":0.0017,"dx":0.0017,"nx":28,"ny":28,"refTime":"2023-07-31T21:00:00:Z","depth":0,"parameterNumber":3,"parameterNumberName":"V-component_of_WINDS"},"data":[0,0,0,0,0,0,0,0,0,0,0,0,0,0,0,0,0,0,0,0,0,0,0,0,0,0,0,0,0,0,0,0,0,0,0,0,0,0,0,0,0,0,0,0,0,0,0,0,0,0,0,0,0,0,0,0,0,0,1.3119,1.3119,0,1.3127,1.3127,1.3127,1.3135,1.3135,1.3136,1.3136,1.3141,1.3141,1.3141,0,0,0,0,0,0,0,0,0,0,0,0,0,1.3107,1.3107,1.3119,1.3119,1.3119,1.3127,1.3127,1.3127,1.3135,1.3135,1.3136,1.3136,1.3141,1.3141,1.3141,0,0,0,0,0,0,0,0,0,0,0,0,0,1.3113,1.3107,1.3119,1.3124,1.3125,1.3127,1.3127,1.3127,1.3135,1.3135,1.3136,1.3136,1.3141,1.3141,1.3141,1.3139,0,0,1.3142,1.3142,0,0,0,0,0,0,0,0,1.3113,1.3113,1.3123,1.3124,1.3125,1.313,1.3125,1.3131,1.3135,1.3131,1.3136,1.3136,1.3137,1.3138,1.3139,1.3139,1.3139,1.3142,1.3142,1.3142,1.3142,0,0,0,0,0,0,0,1.3112,1.3113,1.3122,1.3124,1.3124,1.3125,1.3126,1.3126,1.3133,1.3132,1.3132,1.3133,1.3138,1.3139,1.3139,1.3139,1.3142,1.3142,1.3142,1.3142,1.3133,1.3133,0,0,0,0,0,0,1.3111,1.3113,1.3122,1.3123,1.3119,1.3125,1.3126,1.3128,1.3133,1.3134,1.3133,1.3134,1.3139,1.3139,1.3139,1.3134,1.3142,1.3142,1.3142,1.3134,1.3133,1.3133,0,0,0,0,0,0,1.3111,1.3112,1.3122,1.3118,1.3119,1.3125,1.3127,1.3128,1.313,1.3134,1.3135,1.3133,1.3139,1.3139,1.3138,1.3134,1.3142,1.3142,1.3134,1.3134,1.3133,1.3125,0,0,0,0,0,0,1.3111,1.3112,1.3112,1.3118,1.3119,1.3122,1.3127,1.3128,1.313,1.3131,1.3135,1.3135,1.3139,1.3138,1.3138,1.3135,1.3142,1.3134,1.3134,1.3133,1.3126,1.3124,1.3123,0,0,0,0,0,1.311,1.311,1.3112,1.3113,1.312,1.3122,1.3122,1.3127,1.313,1.3129,1.3131,1.3135,1.3135,1.3138,1.3138,1.3135,1.3135,1.3134,1.3133,1.3126,1.3125,1.3123,0,0,0,0,0,0,1.3104,1.3111,1.3114,1.3115,1.3118,1.3123,1.3122,1.3126,1.3127,1.3128,1.3132,1.3133,1.3131,1.3133,1.3136,1.313,1.3135,1.3134,1.3129,1.3128,1.3127,1.3126,1.3142,0,0,0,0,0,1.3102,1.3104,1.311,1.3111,1.3112,1.3117,1.3118,1.3121,1.3123,1.3124,1.3127,1.3129,1.3128,1.3128,1.3129,1.3126,1.3125,1.3123,1.3122,1.3121,1.312,1.3116,1.3114,1.3131,1.3131,1.3131,0,0,1.31,1.3104,1.3105,1.3109,1.3112,1.3112,1.3118,1.3119,1.3118,1.3124,1.3123,1.3125,1.3126,1.3124,1.3123,1.3125,1.3115,1.312,1.3119,1.3119,1.3115,1.3113,1.3112,1.3131,1.3131,1.3131,0,0,1.3095,1.3099,1.3099,1.3101,1.3104,1.3107,1.3107,1.3111,1.3112,1.3111,1.3115,1.3114,1.3115,1.3115,1.3115,1.3107,1.3109,1.3107,1.3101,1.3096,1.3095,1.3094,1.3089,1.3087,1.3106,1.3106,1.3106,0,1.3091,1.3093,1.3098,1.3098,1.3099,1.3104,1.3103,1.3104,1.3107,1.3107,1.311,1.3108,1.311,1.3106,1.3104,1.3104,1.3102,1.3106,1.3095,1.3094,1.3093,1.3088,1.3086,1.3106,1.3106,1.3106,1.3106,0,1.3087,1.3088,1.3087,1.309,1.309,1.309,1.3093,1.3092,1.3095,1.3097,1.3094,1.3095,1.3095,1.3094,1.3097,1.309,1.3091,1.3094,1.3099,1.309,1.3086,1.3084,1.3105,1.3105,1.3105,1.3105,0,0,1.308,1.3084,1.3083,1.3083,1.3086,1.3086,1.3084,1.3084,1.3082,1.3083,1.308,1.3079,1.3082,1.3082,1.3084,1.308,1.3071,1.3084,1.3084,1.308,1.306,1.3056,1.3055,1.3072,1.3072,1.3072,1.3059,0,1.3075,1.3073,1.3076,1.3073,1.3072,1.3076,1.3074,1.3074,1.3075,1.3073,1.3074,1.3072,1.3076,1.3076,1.3072,1.3073,1.3067,1.3074,1.3068,1.3068,1.3067,1.3053,1.305,1.3038,1.3058,1.3057,1.3057,0,1.3069,1.307,1.3066,1.3066,1.3066,1.3064,1.3063,1.3062,1.3061,1.3061,1.306,1.3062,1.3058,1.3063,1.3056,1.3061,1.3058,1.3057,1.3057,1.3056,1.3061,1.305,1.3034,1.3032,1.3055,1.3055,1.3055,0,1.3062,1.3062,1.3059,1.3059,1.306,1.3058,1.3058,1.3057,1.3056,1.3054,1.3052,1.305,1.3048,1.3045,1.3046,1.305,1.3038,1.3043,1.3036,1.3036,1.3034,1.3034,1.3016,1.3034,1.3034,1.3034,1.3034,0,1.3056,1.3053,1.3055,1.3054,1.305,1.3052,1.3047,1.3048,1.3046,1.3043,1.3046,1.3042,1.3044,1.304,1.304,1.3033,1.3032,1.3031,1.3031,1.303,1.303,1.3028,1.3029,1.3034,1.3034,1.3034,1.3034,0,1.3048,1.305,1.3046,1.3046,1.3046,1.3043,1.3042,1.3039,1.3039,1.3035,1.3034,1.3034,1.3029,1.3029,1.3024,1.3023,1.3014,1.3015,1.3014,1.3014,1.3006,1.3006,1.2986,1.2982,1.3004,1.3004,1.3004,0,1.3044,1.3041,1.3041,1.3039,1.3038,1.3035,1.3033,1.3035,1.3032,1.3029,1.3026,1.3021,1.3018,1.3009,1.3007,1.3002,1.3003,1.2996,1.3002,1.3,1.3,1.3,1.2999,1.2995,1.2994,1.2994,1.2994,0,1.3035,1.3035,1.3033,1.303,1.3027,1.3025,1.3023,1.3021,1.3021,1.3018,1.3013,1.301,1.3003,1.2997,1.2992,1.299,1.2991,1.2992,1.299,1.2989,1.2987,1.2986,1.3009,1.2992,1.2993,1.2993,1.2993,1.2993,1.3028,1.3025,1.3023,1.3019,1.3017,1.3014,1.3011,1.301,1.3006,1.3001,1.3001,1.2994,1.299,1.2983,1.298,1.2974,1.2976,1.2974,1.2973,1.2972,1.297,1.2989,1.2973,1.2973,1.2973,1.2973,1.2973,0,1.3017,1.3016,1.3012,1.3009,1.3005,1.3007,1.3003,1.3,1.2994,1.299,1.2986,1.2978,1.2972,1.2969,1.2962,1.2957,1.2957,1.2955,1.2955,1.2954,1.2969,1.2971,1.2955,1.2955,1.2955,1.2955,1.2955,1.2955,1.3012,1.3006,1.3005,1.2997,1.2995,1.2989,1.2987,1.2983,1.298,1.2971,1.2966,1.2964,1.296,1.2952,1.2945,1.2944,1.2941,1.2938,1.2937,1.2951,1.2953,1.2955,1.2957,1.2937,1.2937,1.2922,1.2922,1.2921]}]]